Location: Unspecified
(0.0000°N, 0.0000°E)
Time: 01:14:58
(UTC+00:00)

COSMOS 1408 DEB - Visible Passes

Search period start: 15 August 2022 00:00
Search period end: 25 August 2022 00:00
Orbit: 442 x 569 km, 82.6° (Epoch: 14 August)

Date Brightness Start Highest point End Pass type
(mag) Time Alt. Az. Time Alt. Az. Time Alt. Az.
15 Aug ? 05:25:35 10° NW 05:28:27 26° W 05:31:20 10° SSW visible
16 Aug ? 05:07:08 10° NNW 05:10:20 40° W 05:13:32 10° SSW visible
17 Aug ? 04:48:50 10° NNW 04:52:10 65° W 04:55:33 10° S visible
18 Aug ? 04:30:36 10° N 04:33:31 63° NNE 04:33:31 63° NNE visible
